Погода в Степурине

Россия / Тверская область     56°23′30″N   35°15′47″E
темп.,
°C
ветер,
м/с
пор.,
м/с
влажн.,
%
обл.,
%
осадки,
мм/ч
давл.,
гПа
погр.,
м
17 сентября, пт
пт1700:00+2с228950 0.0 102134
03:00+3с1183100 0.0 102133
06:00+4с1280100 0.0 102138
09:00+7ссв1269100 0.0 1020438
12:00+9всв2351100 0.1 10201513
15:00+10всв344683 0.1 10201670
18:00+8всв245957 0.0 1021246
21:00+4всв23725 0.0 102259
18 сентября, сб
сб1800:00+2всв26836 0.0 1023116
03:00+2всв389381 0.0 1024153
06:00+1всв2695100 0.0 1024138
09:00+6всв486784 0.0 1025398
12:00+10в574896 0.0 10241338
15:00+11в5746100 0.0 10231457
18:00+9всв5962100 0.0 1023749
21:00+5всв51272100 0.0 1023503
19 сентября, вс
вс1900:00+4в51374100 0.0 1023490
03:00+4всв51375100 0.0 1023501
06:00+4всв51375100 0.0 1022529
09:00+5всв61468100 0.0 1022617
12:00+8в61360100 0.0 10221097
15:00+8в71260100 0.0 10211174
18:00+6всв61268100 0.1 10211098
21:00+5всв61375100 0.7 10211007
20 сентября, пн
пн2000:00+5всв61379100 0.8 10201008
03:00+4всв61481100 2.4 1020927
06:00+4всв71485100 1.0 10201000
09:00+4всв7148599 1.2 10211018
12:00+4всв71383100 0.1 10211088
15:00+4всв61489100 0.1 10201064
18:00+4всв61497100 0.3 10201007
21:00+4всв61490100 0.5 1020956
21 сентября, вт
вт2100:00+3всв51397100 1.1 1019878
03:00+3всв51297100 4.2 1017751
06:00+3всв51295100 1.1 1016693
09:00+4всв51196100 3.2 1015661
12:00+4всв41096100 0.8 1014659
15:00+5всв41097100 1.1 1014589
18:00+5всв41097100 1.3 1013502
21:00+5всв4998100 1.5 1013451